Weather History for KRSW - January, 2012

Change the Weather History Date:

Tuesday, January 3, 2012

  Actual Average (KFMY) Record (KFMY)
Temperature  
Mean Temperature 47 °F 64 °F  
Max Temperature 55 °F 75 °F 87 °F (1982)
Min Temperature 37 °F 54 °F 32 °F (2008)
Degree Days  
Heating Degree Days 18 4  
Month to date heating degree days 12  
Since 1 July heating degree days 105  
Cooling Degree Days 0 3  
Month to date cooling degree days 9  
Year to date cooling degree days 9  
Moisture  
Dew Point 27 °F    
Average Humidity 45    
Maximum Humidity 68    
Minimum Humidity 19    
Precipitation  
Precipitation 0.00 in 0.06 in 1.40 in (1966)
Month to date precipitation 0.18  
Year to date precipitation 0.18  
Sea Level Pressure  
Sea Level Pressure 30.31 in    
Wind  
Wind Speed 8 mph (North)    
Max Wind Speed 21 mph    
Max Gust Speed 29 mph    
Visibility 10 miles    
Events      
T = Trace of Precipitation, MM = Missing Value Source: NWS Daily Summary

Daily Weather History Graph

Daily Weather History Graph

Search for Another Location

Airport or City:

Trip Planner

Search our weather history database for the weather conditions in past years. The results will help you decide how hot, cold, wet, or windy it might be!

Date:

Astronomy

Jan. 03, 2012 Rise Set
Actual Time 7:15 AM EST 5:47 PM EST
Civil Twilight 6:50 AM EST 6:12 PM EST
Nautical Twilight 6:21 AM EST 6:41 PM EST
Astronomical Twilight 5:53 AM EST 7:09 PM EST
Moon 1:26 PM EST (1/3) 2:14 AM EST (1/3)
Length of Visible Light 11h 21m
Length of Day
10h 31m
Waxing Gibbous, 72% of the Moon is Illuminated
Jan 3
Waxing Gibbous
Jan 9
Full
Jan 16
Last Quarter
Jan 23
New
Jan 30
First Quarter

Hourly Weather History & Observations

Time (EST) Temp. Windchill Dew Point Humidity Pressure Visibility Wind Dir Wind Speed Gust Speed Precip Events Conditions
12:53 AM 52.0 °F - 41.0 °F 66% 30.23 in 10.0 mi NNW 4.6 mph - N/A   Clear
1:53 AM 51.1 °F - 41.0 °F 68% 30.23 in 10.0 mi NNW 4.6 mph - N/A   Clear
2:53 AM 51.1 °F - 41.0 °F 68% 30.22 in 10.0 mi NNW 4.6 mph - N/A   Clear
3:53 AM 52.0 °F - 39.9 °F 63% 30.22 in 10.0 mi NNW 5.8 mph - N/A   Clear
4:53 AM 53.1 °F - 37.9 °F 57% 30.22 in 10.0 mi NNW 4.6 mph - N/A   Partly Cloudy
5:53 AM 53.1 °F - 39.9 °F 61% 30.23 in 10.0 mi NNW 3.5 mph - N/A   Scattered Clouds
6:53 AM 55.0 °F - 39.9 °F 57% 30.26 in 10.0 mi NNW 8.1 mph 18.4 mph N/A   Overcast
7:53 AM 54.0 °F - 33.1 °F 45% 30.30 in 10.0 mi NNW 12.7 mph 24.2 mph N/A   Partly Cloudy
8:53 AM 50.0 °F - 30.9 °F 48% 30.35 in 10.0 mi NNW 20.7 mph 28.8 mph N/A   Partly Cloudy
9:53 AM 50.0 °F - 28.9 °F 44% 30.37 in 10.0 mi NNE 12.7 mph 23.0 mph N/A   Clear
10:53 AM 50.0 °F - 24.1 °F 36% 30.37 in 10.0 mi North 17.3 mph 28.8 mph N/A   Clear
11:53 AM 51.1 °F - 23.0 °F 33% 30.34 in 10.0 mi North 17.3 mph 28.8 mph N/A   Clear
12:53 PM 53.1 °F - 16.0 °F 23% 30.31 in 10.0 mi North 12.7 mph 20.7 mph N/A   Clear
1:53 PM 53.1 °F - 10.9 °F 19% 30.30 in 10.0 mi North 16.1 mph 24.2 mph N/A   Clear
2:53 PM 53.1 °F - 14.0 °F 21% 30.29 in 10.0 mi North 13.8 mph 20.7 mph N/A   Clear
3:53 PM 53.6 °F - 15.8 °F 22% 30.31 in 10.0 mi NNE 10.4 mph 17.3 mph N/A   Clear
4:53 PM 52.0 °F - 15.1 °F 23% 30.31 in 10.0 mi NNE 9.2 mph - N/A   Clear
5:53 PM 48.0 °F - 17.1 °F 29% 30.32 in 10.0 mi NNE 5.8 mph - N/A   Clear
6:53 PM 45.0 °F 42.6 °F 21.0 °F 39% 30.34 in 10.0 mi North 4.6 mph - N/A   Clear
7:53 PM 44.1 °F 42.5 °F 19.9 °F 38% 30.36 in 10.0 mi North 3.5 mph - N/A   Clear
8:53 PM 42.1 °F 39.2 °F 21.0 °F 43% 30.38 in 10.0 mi North 4.6 mph - N/A   Clear
9:53 PM 41.0 °F 39.0 °F 24.1 °F 51% 30.39 in 10.0 mi North 3.5 mph - N/A   Clear
10:53 PM 39.9 °F 36.7 °F 25.0 °F 55% 30.39 in 10.0 mi North 4.6 mph - N/A   Clear
11:53 PM 37.9 °F 33.5 °F 26.1 °F 62% 30.39 in 10.0 mi North 5.8 mph - N/A   Clear